Location: Unspecified
(51.0950°N, 12.9690°E)
Time: 15:41:11
(UTC+00:00)

PCSat - Pass Details

Date: 26 April 2024
Orbit: 783 x 792 km, 67.1° (Epoch: 18 May)

Event Time Altitude Azimuth Distance (km) Brightness Sun altitude
Rises 18:45:13 0° 242° (WSW) 3,277 13.3 -4.0°
Reaches altitude 10° 18:47:46 10° 249° (WSW) 2,352 12.7 -4.4°
Maximum altitude 18:52:51 40° 319° (NW) 1,152 11.2 -5.1°
Drops below altitude 10° 18:57:58 10° 29° (NNE) 2,368 12.1 -5.7°
Sets 19:00:32 0° 37° (NE) 3,302 12.7 -6.1°
